User: anonymous   Login
Location: Unspecified
(0.0000°N, 0.0000°E)
Time: 23:53:44
(UTC+00:00)
Language:

DRAGRACER 2(AUGURY) - Orbit

View from above orbital plane
View from above orbital plane
View from above satellite
View from above satellite

Ground track
Ground track

The orbit is defined by the following mean orbital elements,

1 46955U          26145.59802145 +.00000000 +00000-0 +28563-3 0 00001
2 46955  97.5815 339.9086 0004052   4.4422 355.6875 15.69339638    03
Epoch (UTC): 25 May 2026 14:21:09
Eccentricity: 0.0004052
inclination: 97.5815°
perigee height: 358 km
apogee height: 364 km
right ascension of ascending node: 339.9086°
argument of perigee: 4.4422°
revolutions per day: 15.69339638
mean anomaly at epoch: 355.6875°

The dashed part of the orbit path shows where the satellite is in the earth's shadow,  

DLR